Printer-friendly version

IAU Minor Planet Center

Minor Planet Center

MPEC 2008-Q05 : COMET P/2008 L2 (HILL)

The following Minor Planet Electronic Circular may be linked-to from your own Web pages, but must not otherwise be redistributed electronically.


Read MPEC 2008-Q04 Read MPEC 2008-Q06


M.P.E.C. 2008-Q05                                Issued 2008 Aug. 18, 16:26 UT

     The Minor Planet Electronic Circulars contain information on unusual
         minor planets and routine data on comets.  They are published
   on behalf of Commission 20 of the International Astronomical Union by the
          Minor Planet Center, Smithsonian Astrophysical Observatory,
                          Cambridge, MA 02138, U.S.A.

             Prepared using the Tamkin Foundation Computer Network

                              MPC@CFA.HARVARD.EDU
          URL http://www.cfa.harvard.edu/iau/mpc.html  ISSN 1523-6714

                            COMET P/2008 L2 (HILL)

Observations:
    PK08L020  C2008 08 11.99480 00 52 14.94 +30 17 02.5          16.6 T EQ005585
    PK08L020  C2008 08 11.99704 00 52 15.04 +30 17 02.7          16.7 T EQ005585
    PK08L020  C2008 08 12.00418 00 52 15.29 +30 17 03.0          16.7 T EQ005585
    PK08L020  C2008 08 12.00919 00 52 15.53 +30 17 04.1          17.2 N EQ005585
    PK08L020  C2008 08 14.95109 00 54 10.40 +30 20 48.8          17.7 N EQ005B42
    PK08L020  C2008 08 14.95688 00 54 10.60 +30 20 49.2          17.9 N EQ005B42
    PK08L020  C2008 08 14.96381 00 54 10.89 +30 20 49.8          18.0 N EQ005B42
    PK08L020  C2008 08 15.00815 00 54 12.62 +30 20 51.9          17.0 N EQ005J38
    PK08L020  C2008 08 15.01390 00 54 12.77 +30 20 52.5          17.1 N EQ005J38
    PK08L020  C2008 08 17.95842 00 55 55.53 +30 22 06.0          17.6 N EQ005147
    PK08L020  C2008 08 17.96405 00 55 55.73 +30 22 05.8          17.2 N EQ005147
    PK08L020  C2008 08 18.01909 00 55 57.54 +30 22 07.1          16.8 N EQ005J47
    PK08L020  C2008 08 18.02446 00 55 57.74 +30 22 07.8          17.2 N EQ005J47
    PK08L020  C2008 08 18.02769 00 55 57.83 +30 22 07.4          17.0 N EQ005J47
    PK08L020  C2008 08 18.02965 00 55 57.94 +30 22 07.2          17.2 N EQ005J47
    PK08L020  C2008 08 18.03493 00 55 58.06 +30 22 07.4          17.2 N EQ005J47

Observer details:
147 Osservatorio Astronomico di Suno.  Observers P. Concari, D. Crespi,
    S. Foglia, G. Galli, S. Minuto.  Measurers P. Concari, D. Crespi,
    S. Foglia.  0.40-m f/4 reflector + CCD.
585 Kiev comet station.  Observer A. Baransky.  0.7-m f/4 reflector + CCD.
B42 Vitebsk.  Observer V. Nevski.  0.3-m f/5.0 reflector + CCD.
J38 Observatorio La Vara, Valdes.  Observer F. Garcia.  0.25-m f/8.1 reflector
    + CCD.
J47 Observatorio Nazaret.  Observer G. Muler.  0.20-m Schmidt-Cassegrain + CCD.

Orbital elements:
    P/2008 L2 (Hill)
Epoch 2008 Aug. 2.0 TT = JDT 2454680.5
T 2008 Aug. 18.61452 TT                                 MPC
q   2.3172932            (2000.0)            P               Q
n   0.06709237     Peri.  141.32286     +0.96141158     +0.06024747
a   5.9981957      Node   217.98191     -0.07430362     +0.99632939
e   0.6136683      Incl.   25.86098     +0.26489006     +0.06081113
P  14.69
Residuals in seconds of arc
080612 703  0.7-  0.8+    080622 J70  0.6+  0.1-    080802 349  0.6-  0.1+
080612 703  0.1+  0.6+    080622 J70  0.5+  0.1-    080803 J47  0.5-  0.6+
080612 703  0.9-  0.6-    080622 J70  0.5+  0.1+    080803 J47  0.8-  0.5+
080612 703  1.0-  0.0     080624 204  0.1-  0.0     080803 J47  0.1+  0.0
080612 300  0.6-  0.5+    080624 204  0.1+  0.0     080804 B37  0.1+  0.6+
080612 300  0.6-  0.0     080630 349  1.5-  0.9+    080804 B37  0.0   0.5+
080612 300  0.1+  0.4+    080630 349  0.6-  0.4-    080804 B37  0.1-  0.2+
080612 300  0.2+  0.1-    080630 215  0.2-  1.0-    080805 H45  0.0   0.1-
080612 300  0.1+  0.7+    080630 215  0.4-  0.2-    080805 H45  0.1+  0.1-
080613 B20  0.7-  0.0     080630 215  0.1-  0.5+    080805 H45  0.0   0.2-
080613 B20  0.5-  0.1+    080701 629  0.1-  0.3+    080805 H45  0.1+  0.2-
080613 B20  0.2-  0.0     080701 629  0.1+  0.2+    080805 H45  0.1+  0.2-
080613 704  0.2+  0.1+    080704 204  0.2-  0.2+    080805 H45  0.1+  0.1-
080613 704  0.3-  0.6+    080705 941  0.4+  0.0     080807 H45  0.0   0.3-
080613 704  0.3+  0.3+    080705 941  0.3+  0.1-    080807 H45  0.0   0.0
080613 704  0.6+  0.4+    080705 204  0.2-  0.0     080807 H45  0.0   0.1-
080613 704  0.0   0.1-    080705 941  0.4+  0.0     080807 H45  0.1+  0.2-
080613 703  0.8-  1.0-    080705 941  0.3+  0.2-    080807 H45  0.2+  0.1-
080613 854  0.0   0.3+    080707 H45  0.3-  0.5-    080807 H45  0.1+  0.1-
080613 703  1.3-  0.5-    080707 H45  0.2+  0.5-    080808 147  0.0   0.0
080613 H06  0.4-  0.3-    080707 H45  0.4+  0.5-    080808 B42  0.2-  0.2-
080613 854  0.1+  0.7+    080707 H45  0.4+  0.6-    080808 B42  0.2+  0.4+
080613 703  1.4-  0.3+    080707 H45  0.6+  0.6-    080808 B42  0.7+  0.4+
080613 854  0.6-  0.2-    080712 349  0.2-  1.3-    080808 B42  0.7+  0.6+
080613 H06  0.3+  1.1-    080712 349  0.4-  1.5-    080808 B42  0.6+  0.7+
080613 703  0.1-  0.8+    080712 349  0.3+  0.9-    080809 A02  0.2+  0.1-
080613 H06  0.3+  1.3-    080716 204  0.2-  0.0     080809 A02  0.4-  0.2-
080614 734  0.3+  0.1-    080716 204  0.0   0.1+    080809 A02  0.4-  0.3-
080614 734  0.3+  0.2-    080719 118  0.2-  0.0     080809 H45  0.2-  0.2-
080614 H01  0.7+  0.4+    080719 118  0.2+  0.0     080809 H45  0.0   0.1-
080614 734  0.3+  0.3-    080725 204  0.1-  0.1-    080809 H45  0.3+  0.2-
080614 H01  0.7+  0.3+    080725 204  0.1+  0.0     080809 H45  0.1+  0.2-
080614 H01  0.9+  0.4+    080725 B42  1.0+  0.6+    080809 H45  0.0   0.1-
080614 H01  0.6+  0.4+    080725 B42  0.9+  0.8+    080809 H45  0.2+  0.1-
080614 H01  0.8+  0.5+    080727 900  0.3+  0.3-    080810 372  0.1+  0.3+
080614 703  0.2-  0.2-    080727 900  0.3+  0.4-    080810 372  0.0   0.4+
080614 703  1.1-  0.8-    080729 246  0.4-  0.2-    080810 372  0.0   0.3+
080614 703  0.9-  0.0     080729 246  0.4-  0.2-    080811 585  0.2-  0.1-
080614 703  1.9-  0.0     080729 246  0.4-  0.2-    080811 585  0.0   0.1-
080615 J95  0.0   0.3-    080729 246  0.4-  0.3-    080812 585  0.4-  0.6-
080615 J95  0.0   0.0     080729 246  0.2-  0.1-    080812 585  0.1+  0.0
080615 J95  0.1+  0.1+    080729 246  0.4-  0.2-    080814 B42  0.2+  0.2+
080615 J95  0.4+  0.1-    080729 372  0.3+  0.2+    080814 B42  0.1+  0.2+
080615 673  1.0+  0.5+    080729 372  0.2+  0.2+    080814 B42  0.7+  0.4+
080615 673  0.9+  0.4+    080729 372  1.2+  0.6+    080815 J38  0.4+  0.2-
080615 673  0.8+  0.3+    080729 372  0.0   0.1+    080815 J38  0.3-  0.1+
080616 J24  0.2-  0.4+    080730 J27  0.6-  0.4-    080817 147  0.2-  0.0
080616 J24  0.5+  0.5+    080730 J27  0.5-  0.2+    080817 147  0.1+  0.3-
080616 J24  0.3+  1.0+    080730 J27  0.6-  0.2+    080818 J47  0.7-  0.2-
080619 213  0.8+  0.9-    080731 B42  0.6+  0.1+    080818 J47  0.3-  0.5+
080619 213  0.0   0.3+    080731 B42  0.8+  0.0     080818 J47  0.4-  0.1+
080619 213  0.3-  0.1+    080802 349  0.6-  0.2+    080818 J47  0.2+  0.2-
080622 J70  0.6+  0.1-    080802 349  0.9-  0.2+    080818 J47  0.4-  0.0

Brian G. Marsden             (C) Copyright 2008 MPC           M.P.E.C. 2008-Q05

Read MPEC 2008-Q04 Read MPEC 2008-Q06


Our Web policy. Index to the CBAT/MPC/ICQ pages.


Valid HTML 4.01!